Погода в Матвеевке

Россия / Оренбургская область     53°30′29″N   53°28′50″E
темп.,
°C
ветер,
м/с
пор.,
м/с
влажн.,
%
обл.,
%
осадки,
мм/ч
давл.,
гПа
погр.,
м
5 августа, чт
чт523:00+26з1131100 0.0 100912
02:00+23ссз595856 0.0 1010235
05:00+20сз51071100 0.0 1011222
08:00+23сз456586 0.0 1010309
11:00+26сз55500 0.4 1011955
14:00+29ссз553854 0.0 10101882
17:00+30сз542911 0.0 10102966
20:00+26с893789 0.0 10111088
6 августа, пт
пт623:00+20с410545 0.0 1013240
02:00+17с36675 0.0 1013100
05:00+15с47690 0.0 1014122
08:00+19с58590 0.0 1015318
11:00+24с67370 0.0 10151877
14:00+26с66280 0.0 10142384
17:00+28с55245 0.0 10142654
20:00+25ссв462912 0.0 1014208
7 августа, сб
сб723:00+18ссв41036100 0.0 1015160
02:00+15св47420 0.0 101696
05:00+14св225292 0.0 101712
08:00+18св234431 0.0 1018172
11:00+23с343283 0.0 10171246
14:00+27с45263 0.0 10171875
17:00+28с66270 0.0 10161993
20:00+24ссв67360 0.0 1017659
8 августа, вс
вс823:00+18ссв36522 0.0 101885
02:00+16св355436 0.0 101874
05:00+14всв225641 0.0 101928
08:00+18всв234714 0.0 1020207
11:00+23св34351 0.0 1020947
14:00+28с463037 0.0 10181642
17:00+30с572899 0.0 10182054
20:00+27ссв47345 0.0 1018387
9 августа, пн
пн923:00+20св334499 0.0 101925
02:00+19всв454381 0.0 102071
05:00+17в3443100 0.0 102062
08:00+20в3440100 0.0 1020186
11:00+24всв3434100 0.0 1020746
14:00+27в3429100 0.0 10191289
17:00+29всв442263 0.0 10181535
20:00+26в4625100 0.0 1018176